Location: Jackson Park
(37.2862°N, 79.9123°W)
Time: 12:12:35
(UTC+00:00)

ISS - Pass Details

Date: 22 April 2026
Orbit: 414 x 424 km, 51.6° (Epoch: 12 May)

Event Time Altitude Azimuth Distance (km) Brightness Sun altitude
Exits shadow 08:08:44 27° 54° (NE) 847 -1.6 -26.3°
Drops below altitude 10° 08:10:23 10° 52° (NE) 1,499 0.1 -26.1°
Sets 08:12:30 0° 51° (NE) 2,368 1.4 -25.8°
